COSMOS 1275 DEB, 12710

Orbit data source: Space-Track

COSMOS 1275 DEB, 12710 is space debris in LEO originally from a launch on Thu, 04 Jun 1981 UTC launched from the Plesetsk Missile And Space Complex (PKMTR). Debris objects in space refer to the collection of defunct objects orbiting the Earth. Examples of debris include non-operational satellites, rocket bodies, and fragments generated from explosions, collisions, or faulty payload assembly.

Loading next visibility...
Identifier
12710, 1981-053BE
Orbit
LEO
Country
Flag of CISCIS
Related business
Manufacturer
Unknown
Mission
Spacecraft
Bus & Motor
Unknown
Mass
Unknown
Launch date (UTC)
1981-06-04 (45 years ago)
Launch vehicle
Unknown
Launch site
Plesetsk Missile And Space Complex (PKMTR)
Object type
Payload
Rocket body
Debris
Shape & HBR
Unknown shape, 0.3 m
Radar Cross Section
Medium (>0.1 m² and <1 m²)

Expand to show TLE details & history
Last TLE update: 9 hours ago

TLE from 9 hours ago
0 COSMOS 1275 DEB
1 12710U 81053BE  26119.55066319  .00001506  00000-0  15234-2 0  9991
2 12710  83.0033 297.6669 0112933 123.5056 237.6952 13.73723000223137
Epoch: 2026-04-29T13:12Z
TLE epoch observation values (Epoch: 2026-04-29T13:12:57.299Z)
Latitude
-0.00004°
Longitude
-118.08186°
Altitude
1,034.256 km
Speed
7.312 km/s
True Right ascension
19h 50m 40s
True Declination
0° 00' 00"
Sunlit
Object was in daylight at epoch
Visualization orbit readout
Latitude
Unknown
Longitude
Unknown
Altitude
Unknown
Speed
Unknown
Apparent Right ascension
Unknown
Apparent Declination
Unknown
Sunlit
N/A
Visualization observer readout
Local Sidereal Time
05:44:43
Azimuth
Unknown
Elevation
Unknown
Doppler factor
Unknown
Orbital elements
Apogee altitude
1,066.519 km
Perigee altitude
900.247 km
Semi-major axis
7,361.52 km
Eccentricity
0.01129
Inclination
83.0033°
RAAN
297.6669°
Arg. of periapsis
123.5056°
True anomaly
236.60965°
Mean anomaly
237.6952°
Eccentric anomaly
237.1516°
Mean motion
3.43631 °/min
Orbital period
104.76 mins
BSTAR
0.0015234
Loading maneuver chart data...
Computing Atmospheric mass density...
Loading historical data...
Loading historical data...
Loading historical data...
Loading historical data...
Loading historical data...
Loading historical data...
Loading historical data...

Documentation

Showing up to 5 results
|